Olathe New Century, KS

6:33 PM CDT on April 24, 2017 (GMT -0500)
New Century Aircenter

Weather History for KIXD - February, 2013

Change the Weather History Date:

Friday, February 22, 2013

  Actual Average Record
Temperature  
Mean Temperature 21 °F -  
Max Temperature 26 °F 43 °F 81 °F (2017)
Min Temperature 14 °F 26 °F 14 °F (2013)
Degree Days  
Heating Degree Days 44    
Moisture  
Dew Point 17 °F    
Average Humidity 82    
Maximum Humidity 93    
Minimum Humidity 63    
Precipitation  
Precipitation 0.00 in - - ()
Sea Level Pressure  
Sea Level Pressure 29.97 in    
Wind  
Wind Speed 7 mph (West)    
Max Wind Speed 15 mph    
Max Gust Speed -    
Visibility 8 miles    
Events Snow    
Averages and records for this station are not official NWS values.
T = Trace of Precipitation, MM = Missing Value Source: NWS Daily Summary

Daily Weather History Graph

Daily Weather History Graph

Search for Another Location

Airport or City:

Trip Planner

Search our weather history database for the weather conditions in past years. The results will help you decide how hot, cold, wet, or windy it might be!

Date:

Astronomy

Feb. 22, 2013 Rise Set
Actual Time 7:01 AM CST 6:05 PM CST
Civil Twilight 6:34 AM CST 6:32 PM CST
Nautical Twilight 6:03 AM CST 7:03 PM CST
Astronomical Twilight 5:32 AM CST 7:33 PM CST
Moon 3:18 PM CST (2/22) 4:45 AM CST (2/22)
Length of Visible Light 11h 57m
Length of Day
11h 03m
Waxing Gibbous, 90% of the Moon is Illuminated
Feb 22
Waxing Gibbous
Feb 25
Full
Mar 4
Last Quarter
Mar 11
New
Mar 19
First Quarter

Hourly Weather History & Observations

Time (CST) Temp. Windchill Dew Point Humidity Pressure Visibility Wind Dir Wind Speed Gust Speed Precip Events Conditions
12:03 AM 24.8 °F 20.5 °F 21.2 °F 86% 29.78 in 5.0 mi North 3.5 mph - N/A   Overcast
12:21 AM 24.8 °F - 21.2 °F 86% 29.78 in 6.0 mi Calm Calm - N/A   Overcast
12:41 AM 24.8 °F - 21.2 °F 86% 29.79 in 6.0 mi Calm Calm - N/A   Overcast
12:51 AM 24.8 °F - 21.2 °F 86% 29.79 in 5.0 mi Calm Calm - N/A   Overcast
12:53 AM 24.1 °F - 21.9 °F 91% 29.83 in 5.0 mi Calm Calm - N/A   Overcast
1:14 AM 24.8 °F 19.1 °F 21.2 °F 86% 29.80 in 4.0 mi WNW 4.6 mph - 0.00 in Snow Light Snow
1:53 AM 23.0 °F 12.4 °F 21.0 °F 92% 29.84 in 3.0 mi West 10.4 mph - 0.00 in Snow Light Snow
2:29 AM 23.0 °F 13.1 °F 21.2 °F 93% 29.81 in 6.0 mi West 9.2 mph - 0.00 in   Overcast
2:53 AM 23.0 °F 11.7 °F 21.0 °F 92% 29.85 in 8.0 mi West 11.5 mph - 0.00 in   Overcast
3:53 AM 23.0 °F 11.7 °F 19.9 °F 88% 29.87 in 9.0 mi West 11.5 mph - N/A   Overcast
4:37 AM 21.2 °F 9.5 °F 19.4 °F 93% 29.86 in 10.0 mi West 11.5 mph - N/A   Overcast
4:53 AM 21.9 °F 9.8 °F 18.0 °F 85% 29.90 in 10.0 mi West 12.7 mph - N/A   Overcast
5:34 AM 19.4 °F 7.9 °F 17.6 °F 93% 29.88 in 10.0 mi West 10.4 mph - N/A   Scattered Clouds
5:46 AM 21.2 °F 8.3 °F 17.6 °F 86% 29.88 in 9.0 mi West 13.8 mph - N/A   Mostly Cloudy
5:53 AM 21.0 °F 8.1 °F 17.1 °F 85% 29.92 in 9.0 mi West 13.8 mph - N/A   Mostly Cloudy
6:53 AM 19.9 °F 6.2 °F 16.0 °F 85% 29.95 in 9.0 mi West 15.0 mph - N/A   Overcast
7:22 AM 19.4 °F 9.5 °F 15.8 °F 86% 29.92 in 8.0 mi West 8.1 mph - N/A   Scattered Clouds
7:53 AM 19.0 °F 8.2 °F 15.1 °F 85% 29.98 in 7.0 mi West 9.2 mph - N/A   Mostly Cloudy
8:28 AM 19.4 °F 6.6 °F 15.8 °F 86% 29.95 in 6.0 mi WNW 12.7 mph - N/A   Overcast
8:53 AM 18.0 °F 5.4 °F 15.1 °F 88% 30.01 in 4.0 mi West 11.5 mph - N/A   Overcast
9:53 AM 19.0 °F 6.8 °F 15.1 °F 85% 30.04 in 6.0 mi WNW 11.5 mph - N/A   Overcast
10:16 AM 19.4 °F 7.9 °F 15.8 °F 86% 30.02 in 8.0 mi West 10.4 mph - N/A   Overcast
10:53 AM 21.0 °F 10.6 °F 17.1 °F 85% 30.06 in 8.0 mi West 9.2 mph - N/A   Overcast
11:27 AM 21.2 °F 10.9 °F 15.8 °F 80% 30.04 in 10.0 mi West 9.2 mph - N/A   Scattered Clouds
11:53 AM 23.0 °F 13.1 °F 17.1 °F 78% 30.08 in 10.0 mi West 9.2 mph - N/A   Mostly Cloudy
12:53 PM 24.1 °F 14.4 °F 17.1 °F 75% 30.08 in 10.0 mi West 9.2 mph - N/A   Overcast
1:53 PM 25.0 °F 13.1 °F 17.1 °F 72% 30.07 in 10.0 mi West 13.8 mph - N/A   Mostly Cloudy
2:02 PM 24.8 °F 14.0 °F 17.6 °F 74% 30.03 in 10.0 mi West 11.5 mph - N/A   Scattered Clouds
2:15 PM 24.8 °F 14.0 °F 15.8 °F 69% 30.03 in 10.0 mi West 11.5 mph - N/A   Mostly Cloudy
2:30 PM 26.6 °F 14.7 °F 17.6 °F 69% 30.03 in 10.0 mi West 15.0 mph - N/A   Scattered Clouds
2:53 PM 26.1 °F 16.2 °F 16.0 °F 66% 30.06 in 10.0 mi WNW 10.4 mph - N/A   Clear
3:53 PM 26.1 °F 16.2 °F 16.0 °F 66% 30.06 in 10.0 mi WNW 10.4 mph - N/A   Clear
4:53 PM 26.1 °F 17.6 °F 15.1 °F 63% 30.07 in 10.0 mi West 8.1 mph - N/A   Clear
5:53 PM 24.1 °F 17.0 °F 15.1 °F 69% 30.09 in 10.0 mi WSW 5.8 mph - N/A   Clear
6:53 PM 21.9 °F 15.7 °F 14.0 °F 72% 30.10 in 10.0 mi WSW 4.6 mph - N/A   Clear
7:53 PM 19.9 °F 12.1 °F 14.0 °F 78% 30.11 in 10.0 mi WSW 5.8 mph - N/A   Clear
8:53 PM 19.0 °F 11.1 °F 12.9 °F 77% 30.12 in 10.0 mi WSW 5.8 mph - N/A   Clear
9:53 PM 17.1 °F 8.7 °F 12.0 °F 81% 30.12 in 10.0 mi WSW 5.8 mph - N/A   Clear
10:53 PM 16.0 °F 8.8 °F 10.9 °F 81% 30.11 in 10.0 mi WSW 4.6 mph - N/A   Clear
11:53 PM 14.0 °F 8.2 °F 10.0 °F 84% 30.12 in 9.0 mi WSW 3.5 mph - N/A   Clear